Track A-1 (ASTERIX) now! 10-day predictions A-1 (ASTERIX) is classified as:
1 01778U 65096A 22145.42098986 .00000599 00000-0 16062-3 0 9990 2 01778 34.2551 199.4496 0750355 176.4228 184.2190 13.47135706764427